This is the latest recevied weather packets stored in our database for station/object N3TTT-13. If no packets are shown the sender has not sent any weather packets the latest 10 day(s).
| Time | Temp. | Humidity | Pressure | Rain* | Wind** | Luminosity | Snow |
|---|---|---|---|---|---|---|---|
| 1777850051 | 13.33° C | 44% | 1014.4 hPa | 0 mm | - | 16 W/m² | - |
| 1777849748 | 13.89° C | 43% | 1014.4 hPa | 0 mm | - | 18 W/m² | - |
| 1777849444 | 13.89° C | 42% | 1014.2 hPa | 0 mm | - | 20 W/m² | - |
| 1777849142 | 14.44° C | 41% | 1014.3 hPa | 0 mm | - | 21 W/m² | - |
| 1777848838 | 14.44° C | 40% | 1014.3 hPa | 0 mm | - | 23 W/m² | - |
| 1777848534 | 14.44° C | 40% | 1014.2 hPa | 0 mm | - | 24 W/m² | - |
| 1777848231 | 14.44° C | 38% | 1014.5 hPa | 0 mm | - | 25 W/m² | - |
| 1777847929 | 14.44° C | 38% | 1014.2 hPa | 0 mm | - | 27 W/m² | - |
| 1777847627 | 14.44° C | 39% | 1014.3 hPa | 0 mm | - | 29 W/m² | - |
| 1777847322 | 14.44° C | 38% | 1014.4 hPa | 0 mm | - | 29 W/m² | - |
| 1777847021 | 14.44° C | 37% | 1014.3 hPa | 0 mm | - | 31 W/m² | - |
| 1777846718 | 14.44° C | 40% | 1014.3 hPa | 0 mm | - | 33 W/m² | - |
| 1777846417 | 14.44° C | 40% | 1014.3 hPa | 0 mm | - | 33 W/m² | - |
| 1777846112 | 14.44° C | 41% | 1014.3 hPa | 0 mm | - | 59 W/m² | - |
| 1777845810 | 15° C | 41% | 1014.3 hPa | 0 mm | - | 56 W/m² | - |
| 1777845506 | 15° C | 39% | 1014.3 hPa | 0 mm | - | 36 W/m² | - |
| 1777845204 | 15° C | 39% | 1014.2 hPa | 0 mm | - | 63 W/m² | - |
| 1777844901 | 15° C | 40% | 1014.4 hPa | 0 mm | - | 39 W/m² | - |
| 1777844599 | 15° C | 39% | 1014.3 hPa | 0 mm | - | 46 W/m² | - |
| 1777844296 | 14.44° C | 41% | 1014.1 hPa | 0 mm | - | 43 W/m² | - |
| 1777843994 | 14.44° C | 39% | 1014.1 hPa | 0 mm | - | 54 W/m² | - |
| 1777843690 | 15° C | 40% | 1014.1 hPa | 0 mm | - | 41 W/m² | - |
| 1777843388 | 14.44° C | 41% | 1014 hPa | 0 mm | - | 52 W/m² | - |
| 1777843085 | 14.44° C | 40% | 1014.1 hPa | 0 mm | - | 94 W/m² | - |
| 1777842782 | 14.44° C | 41% | 1014.2 hPa | 0 mm | - | 58 W/m² | - |
* Rain latest hour (hover to see other rain measurements)
** Current wind speed in m/s (hover to see current wind gust speed)